KA2QBS Weather Reports


Display with metric or nautical units.
time (UTC)temp
F
wind
direction
speed
MPH
gust
MPH
rain 1hr
in
rain 24hr
in
rain mn
in
humidity
%
barometer
mb
20260509004556 45 292 0.0 0.0 0.00 0.00 0.00 62 1013.5
20260509003056 46 292 0.0 0.0 0.00 0.00 0.00 58 1013.4
20260509001555 48 292 0.0 0.0 0.00 0.00 0.00 55 1013.1
20260509000105 49 292 0.0 1.0 0.00 0.00 0.00 53 1013.0
20260508234603 50 292 0.0 5.0 0.00 0.00 0.00 54 1012.9
20260508233058 50 305 1.0 5.0 0.00 0.00 0.00 49 1012.9
20260508231553 51 260 0.0 9.0 0.00 0.00 0.00 50 1012.9
20260508230101 51 272 6.0 11.0 0.00 0.00 0.00 50 1013.0
20260508224556 51 281 2.0 11.0 0.00 0.00 0.00 50 1013.0
20260508223052 52 294 2.0 11.0 0.00 0.00 0.00 48 1012.9
20260508221552 53 294 2.0 10.0 0.00 0.00 0.00 51 1012.9
20260508220051 52 289 4.0 7.0 0.00 0.00 0.00 53 1012.8
20260508214607 53 288 5.0 12.0 0.00 0.00 0.00 49 1012.8
20260508213100 53 331 2.0 12.0 0.00 0.00 0.00 50 1012.9
20260508211556 53 312 4.0 12.0 0.00 0.00 0.00 52 1012.9
20260508210050 53 302 3.0 13.0 0.00 0.00 0.00 52 1012.9
20260508204553 51 262 4.0 17.0 0.00 0.00 0.00 54 1012.8
20260508203054 53 293 5.0 12.0 0.00 0.00 0.00 48 1012.9
20260508201556 52 300 4.0 16.0 0.00 0.00 0.00 53 1013.0
20260508200055 52 257 10.0 16.0 0.00 0.00 0.00 52 1013.0
20260508194541 51 307 8.0 18.0 0.00 0.00 0.00 55 1013.1
20260508193040 51 233 5.0 16.0 0.00 0.00 0.00 61 1013.2
20260508191541 50 311 7.0 14.0 0.00 0.00 0.00 62 1013.1
20260508190044 50 282 5.0 18.0 0.00 0.00 0.00 62 1013.2
20260508184539 51 271 6.0 11.0 0.00 0.00 0.00 63 1013.2
20260508183038 49 284 5.0 12.0 0.00 0.00 0.00 66 1013.4
20260508181603 50 270 4.0 11.0 0.00 0.00 0.00 66 1013.4
20260508180032 49 267 7.0 16.0 0.00 0.00 0.00 69 1013.4
20260508174532 48 277 7.0 15.0 0.00 0.00 0.00 70 1013.4
20260508173030 48 275 4.0 14.0 0.00 0.00 0.00 71 1013.5
20260508171531 47 242 3.0 12.0 0.00 0.00 0.00 79 1013.7
20260508170029 45 275 6.0 11.0 0.00 0.00 0.00 80 1013.8
20260508164537 44 269 8.0 14.0 0.00 0.00 0.00 80 1014.0
20260508163028 45 263 8.0 18.0 0.00 0.00 0.00 77 1014.1
20260508161528 48 295 4.0 14.0 0.00 0.00 0.00 64 1013.9
20260508160036 48 313 1.0 9.0 0.00 0.00 0.00 65 1013.7
20260508154526 48 267 2.0 14.0 0.00 0.00 0.00 65 1013.8
20260508153024 47 255 4.0 12.0 0.00 0.00 0.00 66 1013.7
20260508151524 47 297 4.0 9.0 0.00 0.00 0.00 67 1013.6
20260508150023 47 287 3.0 12.0 0.00 0.00 0.00 64 1013.5
20260508144521 46 293 3.0 12.0 0.00 0.00 0.00 67 1013.7
20260508143021 46 284 6.0 11.0 0.00 0.00 0.00 62 1013.7
20260508141530 47 299 4.0 10.0 0.00 0.00 0.00 65 1013.6
20260508140019 46 265 4.0 12.0 0.00 0.00 0.00 64 1013.5
20260508134518 46 300 7.0 14.0 0.00 0.00 0.00 68 1013.4
20260508133020 45 269 1.0 9.0 0.00 0.00 0.00 68 1013.1
20260508131514 45 269 1.0 4.0 0.00 0.00 0.00 77 1013.3
20260508130012 44 240 0.0 8.0 0.00 0.00 0.00 79 1013.5
20260508124509 43 290 0.0 7.0 0.00 0.00 0.00 82 1013.4
20260508123006 42 315 0.0 3.0 0.00 0.00 0.00 85 1013.6
20260508121505 41 281 0.0 3.0 0.00 0.00 0.00 88 1013.7
20260508120103 40 280 0.0 0.0 0.00 0.00 0.00 91 1013.9
20260508114559 39 280 0.0 1.0 0.00 0.00 0.00 91 1013.9
20260508113100 39 280 0.0 0.0 0.00 0.00 0.00 93 1013.7
20260508111601 38 280 0.0 0.0 0.00 0.00 0.00 94 1013.9
20260508104554 37 280 0.0 0.0 0.00 0.00 0.00 91 1013.7
20260508103120 37 280 0.0 0.0 0.00 0.00 0.00 90 1013.4
20260508101604 38 281 0.0 3.0 0.00 0.00 0.00 90 1013.1
20260508100050 38 277 0.0 4.0 0.00 0.00 0.00 89 1013.1
20260508094604 38 288 0.0 3.0 0.00 0.00 0.00 87 1013.1
20260508093049 39 290 0.0 1.0 0.00 0.00 0.00 86 1013.0
20260508091549 39 290 0.0 3.0 0.00 0.00 0.00 86 1013.0
20260508090059 39 290 0.0 5.0 0.00 0.00 0.00 87 1013.0
20260508084547 39 290 0.0 1.0 0.00 0.00 0.00 87 1013.0
20260508083107 39 306 0.0 7.0 0.00 0.00 0.00 86 1013.1
20260508081546 39 278 1.0 8.0 0.00 0.00 0.00 84 1013.1
20260508080049 40 317 1.0 5.0 0.00 0.00 0.00 81 1012.9
20260508074542 40 340 0.0 0.0 0.00 0.00 0.00 79 1012.7
20260508073043 40 340 0.0 0.0 0.00 0.00 0.00 79 1012.4
20260508071539 39 340 0.0 0.0 0.00 0.00 0.00 79 1012.3
20260508070038 39 340 0.0 0.0 0.00 0.00 0.00 83 1012.3
20260508064548 39 340 0.0 0.0 0.00 0.00 0.00 82 1012.2
20260508063035 38 340 0.0 0.0 0.00 0.00 0.00 85 1012.1
20260508061535 38 340 0.0 0.0 0.00 0.00 0.00 85 1012.3
20260508060032 37 340 0.0 0.0 0.00 0.00 0.00 86 1012.4
20260508054534 37 340 0.0 0.0 0.00 0.00 0.00 85 1012.4
20260508053034 36 340 0.0 0.0 0.00 0.00 0.00 86 1012.3
20260508051530 36 340 0.0 0.0 0.00 0.00 0.00 86 1012.4
20260508050029 35 340 0.0 2.0 0.00 0.00 0.00 83 1012.4
20260508044527 35 332 0.0 0.0 0.00 0.00 0.00 81 1012.4
20260508043023 37 323 0.0 0.0 0.00 0.00 0.00 79 1012.3
20260508041523 37 323 0.0 0.0 0.00 0.00 0.00 76 1012.3
20260508040024 38 323 0.0 0.0 0.00 0.00 0.00 76 1012.2
20260508034518 38 323 0.0 0.0 0.00 0.00 0.00 78 1011.8
20260508033022 38 323 0.0 0.0 0.00 0.00 0.00 78 1011.8
20260508031526 39 323 0.0 0.0 0.00 0.00 0.00 75 1011.8
20260508030018 40 323 0.0 2.0 0.00 0.00 0.00 71 1012.0
20260508024517 42 302 0.0 0.0 0.00 0.00 0.00 65 1012.0
20260508023026 44 302 0.0 0.0 0.00 0.00 0.00 60 1012.0
20260508021517 44 302 0.0 0.0 0.00 0.00 0.00 61 1012.0
20260508020015 45 302 0.0 0.0 0.00 0.00 0.00 60 1012.2
20260508014533 45 305 0.0 3.0 0.00 0.00 0.00 57 1012.2
20260508013015 45 309 0.0 3.0 0.00 0.00 0.00 54 1012.1
20260508011519 45 309 0.0 0.0 0.00 0.00 0.00 58 1011.9
20260508010024 45 309 0.0 0.0 0.00 0.00 0.00 56 1011.9